Location: Roda de Eresma
(41.0285°N, 4.1813°W)
Time: 18:54:32
(UTC+00:00)

Daily predictions for brighter satellites

Satellite Brightness Start Highest point End
(mag) Time Altitude Azimuth Time Altitude Azimuth Time Altitude Azimuth
Cosmos 1900 4.4 17:09:10 10° NNW 17:14:10 60° ENE 17:19:01 10° SE
Hubble Space Telescope 3.3 17:16:26 10° S 17:17:10 10° S 17:17:54 10° SSE
SMAP 3.4 17:13:16 10° SE 17:17:40 44° ENE 17:22:06 10° N
IRIDIUM 104 4.4 17:14:32 10° N 17:19:43 62° E 17:24:52 10° SSE
Cosmos 2084 Rocket 3.4 17:17:06 10° NW 17:21:20 84° NE 17:25:32 10° SE
Meteor 1-20 Rocket 4.1 17:15:56 10° N 17:21:23 71° E 17:26:51 10° SSE
Landsat 7 4.2 17:17:33 10° SE 17:21:49 38° ENE 17:26:08 10° N
Cosmos 2297 Rocket 2.6 17:17:43 10° NNW 17:23:22 71° WSW 17:28:58 10° SSE
Cosmos 1602 Rocket 3.5 17:20:19 10° N 17:24:42 89° E 17:29:01 10° S
YAOGAN 1 4.4 17:23:47 10° ENE 17:25:00 11° ENE 17:26:12 10° NE
GEOS 3 Rocket 3.7 17:20:38 10° NE 17:26:02 75° SE 17:31:23 10° SSW
IRIDIUM 114 4.3 17:23:37 10° N 17:28:51 76° E 17:34:04 10° S
NOSS 7 (H) 4.3 17:26:46 10° NNW 17:29:40 51° NE 17:33:00 10° SE
Cosmos 990 Rocket 4.0 17:25:35 10° SSW 17:30:41 87° ESE 17:35:53 10° NNE
Okean 1-7 Rocket 3.5 17:28:08 10° N 17:32:30 72° E 17:36:50 10° SSE
COSMOS 2455 4.3 17:31:24 10° SE 17:35:13 18° ESE 17:38:36 11° ENE
SL-16 R/B 3.3 17:31:45 10° N 17:37:47 55° WNW 17:43:46 10° SW
IRIDIUM 103 4.4 17:32:46 10° N 17:38:01 89° W 17:43:14 10° S
ATLAS CENTAUR R/B 4.3 17:36:23 10° WNW 17:38:08 14° WSW 17:39:52 10° SW
CORIOLIS 4.1 17:36:29 10° SSE 17:41:48 84° ENE 17:47:10 10° NNW
Cosmos 1980 Rocket 2.3 17:37:27 10° S 17:43:00 60° ESE 17:48:33 10° NNE
Aureole 1 Rocket 3.5 17:40:55 10° S 17:45:06 53° ESE 17:50:26 10° NNE
Cosmos 2219 3.9 17:41:27 10° N 17:46:30 31° ENE 17:51:34 10° ESE
Cosmos 1953 Rocket 3.8 17:45:10 10° N 17:49:27 45° ENE 17:53:43 10° SSE
ARIANE 5 R/B 2.4 17:45:41 10° SSE 17:50:42 73° ENE 17:55:50 10° N
IRS-1C 4.1 17:47:06 10° SSE 17:52:24 74° ENE 17:57:42 10° N
Cosmos 2263 Rocket 2.3 17:49:19 10° NNW 17:54:53 51° ENE 18:00:24 10° SE
Cosmos 1867 3.9 17:50:08 10° NW 17:55:34 69° WSW 18:00:56 10° SSE
BREEZE-M DEB (TANK) 2.6 17:50:09 10° SW 17:55:38 72° SSE 17:57:13 22° ENE
Cosmos 1825 Rocket 3.6 17:52:57 10° N 17:57:17 83° W 18:01:35 10° S
SAR-Lupe-4 3.4 17:54:04 10° SSE 17:57:36 80° ENE 18:01:10 10° N
BREEZE-M DEB (TANK) 4.4 17:55:43 10° NW 17:59:12 40° NNE 18:06:53 15° E
Meteor 1-5 Rocket 4.1 17:54:29 10° N 17:59:53 75° E 18:05:25 10° SSE
Cosmos 1933 4.4 17:56:15 10° SSW 17:59:53 43° W 18:03:34 10° N
Cosmos 2369 4.0 17:55:17 10° S 18:00:42 46° ESE 18:05:20 14° NE
COSMO-SKYMED 1 3.4 17:59:08 19° NE 18:01:02 26° E 18:04:31 10° SSE
Cosmos 1076 Rocket 3.4 17:59:47 10° N 18:04:07 73° E 18:08:25 10° SSE
Meteor 2-10 4.3 17:59:03 10° N 18:04:21 51° ENE 18:09:47 10° SSE
SAR-Lupe-1 4.1 18:06:42 10° S 18:10:17 82° WSW 18:13:55 10° NNW
SJ-12 3.9 18:07:34 10° S 18:11:19 72° WSW 18:15:06 10° NNW
Cosmos 1655 Rocket 3.9 18:06:58 10° N 18:13:14 87° E 18:19:26 10° S
USA 81 4.0 18:08:26 10° N 18:13:39 60° E 18:18:50 10° SSE
CZ-2D R/B 3.5 18:11:22 10° S 18:14:26 54° W 18:17:31 10° NNW
SPOT 1/Viking Rocket 3.6 18:09:42 10° SSE 18:14:47 58° ENE 18:19:54 10° N
Cosmos 2227 Rocket 2.7 18:09:27 10° NNW 18:15:03 63° WSW 18:20:35 10° S
Cosmos 2058 Rocket 3.0 18:17:04 10° S 18:21:32 84° E 18:26:02 10° N
Cosmos 1697 Rocket 4.3 18:17:51 10° WSW 18:22:43 30° WNW 18:27:39 10° N
SAR-Lupe-3 4.2 18:22:51 36° NNW 18:23:36 56° WNW 18:26:01 10° SSW
NOSS 3 (A) 4.4 18:23:14 10° NNW 18:25:55 84° NE 18:27:33 27° SE
Cosmos 1538 Rocket 4.0 18:24:05 10° NNW 18:29:25 84° WSW 18:34:45 10° SSE
USA 308 3.8 18:27:34 10° S 18:29:26 23° SSE 18:29:26 23° SSE
Cosmos 2333 Rocket 3.5 18:26:18 10° SSE 18:29:34 21° ESE 18:29:34 21° ESE
Cosmos 2322 Rocket 3.9 18:37:26 10° SSE 18:39:03 16° SE 18:39:03 16° SE
Resurs 1-3 3.4 18:37:25 10° SSE 18:41:41 70° ENE 18:45:58 10° N
Cosmos-2242 3.5 18:39:46 10° SSW 18:43:56 58° W 18:47:46 12° N
USA 59 Rocket 2.0 18:44:03 10° SSE 18:45:01 14° SSE 18:45:01 14° SSE
Spot 4 Rocket 3.9 18:46:21 10° SSE 18:51:28 89° ENE 18:56:36 10° NNW
Cosmos 1898 Rocket 4.2 18:47:52 10° SW 18:52:51 50° WNW 18:56:45 17° N
Hubble Space Telescope 3.1 18:54:46 10° SSW 18:56:17 12° S 18:56:52 12° S
Cosmos 1805 3.8 18:53:18 10° NNW 18:56:33 46° W 18:59:45 10° SSW
Nadezhda 2 Rocket 4.4 18:50:39 10° N 18:56:47 87° W 19:02:52 10° S
EXPRESS MD2 4.5 18:54:31 10° W 18:56:20 27° NW 18:56:20 27° NW
Cosmos 1553 Rocket 4.1 18:52:04 10° S 18:58:13 77° W 19:04:30 10° N
S3M 4.1 18:52:44 10° SSE 18:58:49 51° E 18:59:17 50° ENE
IRAS Rocket 4.0 18:54:02 10° SSE 18:59:30 83° ENE 19:05:00 10° NNW
YAOGAN 1 2.7 18:56:00 10° S 19:00:13 70° WSW 19:04:30 10° NNW
Cosmos 2082 3.7 18:57:59 10° NNW 19:03:44 84° WSW 19:09:26 10° SSE
BREEZE-M DEB (TANK) 3.1 18:57:23 10° SW 19:05:30 90° SSE 19:06:16 64° NE
CZ-2D R/B 4.4 19:03:25 10° S 19:07:27 47° W 19:11:28 10° NNW
Cosmos 1937 Rocket 4.2 19:03:16 10° SW 19:08:17 50° WNW 19:10:58 26° N
Meteor 2-6 Rocket 4.2 19:03:00 10° S 19:08:40 86° W 19:11:37 31° N
Cosmos 923 Rocket 3.9 19:05:42 10° NNW 19:10:54 83° WSW 19:13:12 34° SSE
Cosmos 2237 4.4 19:05:15 10° SSW 19:10:57 70° WNW 19:12:59 41° N
SL-16 R/B 2.1 19:05:57 10° SSW 19:11:20 67° SE 19:11:20 67° SE
SL-24 R/B - RUBIN 2 4.3 19:09:24 10° SW 19:14:49 59° NW 19:15:40 52° NNW
Cosmos 1745 Rocket 3.8 19:12:30 10° N 19:18:41 75° E 19:24:47 10° SSE
COSMOS 2455 2.9 19:14:26 10° SW 19:20:26 72° WNW 19:21:46 54° N
Cosmos 1980 Rocket 4.3 19:23:08 10° WSW 19:27:24 22° NW 19:31:06 12° N
Cosmos 2219 4.5 19:25:23 10° NW 19:30:42 40° WSW 19:35:59 10° S
Cosmos 1844 Rocket 4.1 19:25:05 10° NNW 19:27:30 26° N 19:27:30 26° N
Cosmos 2278 4.1 19:31:39 10° SSW 19:36:05 57° SSW 19:36:05 57° SSW
Cosmos 2263 Rocket 4.5 19:34:05 10° NW 19:38:21 22° W 19:42:37 10° SSW
Cosmos 2360 Rocket 4.2 19:53:30 10° SSW 19:54:54 18° SSW 19:54:54 18° SSW
Cosmos 2333 Rocket 3.9 20:08:52 10° SW 20:11:39 28° SW 20:11:39 28° SW
Cosmos 2322 Rocket 4.4 20:19:34 10° SW 20:20:54 17° SW 20:20:54 17° SW
